Date String (YYYY-MM-DD hh:mm:ss) UTC,Instrument flags,Ambient pressure (hPa),Sample flow (lpm),Bypass flow (lpm),Sample temperature (°C),Ambient temperature (°C),ASC tube jacket temperature (°C),LED temperature (°C),Box temperature (°C),Sample RH (%),Span deviation,Mass concentration (μg/m³),Mass concentration (μg/m³),Mass concentration (μg/m³)
DateTimeUTC,F1_M11,P_M11,Q1_M11,Q2_M11,T1_M11,T2_M11,T3_M11,T4_M11,T5_M11,U1_M11,ZSPAN_M11,X2_M11,X0_M11,X1_M11
2022-05-22 16:00:00,,0831.6,5.00,0.00,24.8,24.1,00.0,33.6,26.8,17.7,0000.0,0000.02,0000.12,0000.01
2022-05-22 16:01:00,,0831.5,4.99,0.00,24.8,24.1,00.0,33.6,26.8,18.3,0000.0,0000.02,0000.12,0000.01
2022-05-22 16:02:00,,0831.6,5.00,0.00,24.8,24.1,00.0,33.6,26.8,18.8,0000.0,0000.02,0000.12,0000.01
2022-05-22 16:03:00,,0831.6,4.98,0.00,24.8,24.1,00.0,33.6,26.8,18.3,0000.0,0000.02,0000.12,0000.01
2022-05-22 16:04:00,,0831.5,5.00,0.00,24.8,24.1,00.0,33.6,26.8,18.7,0000.0,0000.02,0000.12,0000.01
2022-05-22 16:05:00,,0831.6,5.01,0.00,24.9,24.1,00.0,33.6,26.8,17.9,0000.0,0000.02,0000.12,0000.01
2022-05-22 16:06:00,,0831.5,4.99,0.00,24.9,24.1,00.0,33.7,26.8,17.8,0000.0,0000.02,0000.06,0000.01
2022-05-22 16:07:00,,0831.4,5.01,0.00,24.9,24.2,00.0,33.7,26.9,17.9,0000.0,0000.02,0000.03,0000.01
2022-05-22 16:08:00,,0831.4,4.99,0.00,24.9,24.2,00.0,33.7,26.9,18.2,0000.0,0000.02,0000.04,0000.01
2022-05-22 16:09:00,,0831.4,5.01,0.00,24.9,24.2,00.0,33.7,26.9,17.5,0000.0,0000.02,0000.04,0000.01
2022-05-22 16:10:00,,0831.4,5.00,0.00,24.9,24.2,00.0,33.7,26.9,18.4,0000.0,0000.02,0000.04,0000.01
2022-05-22 16:11:00,,0831.4,5.00,0.00,24.9,24.2,00.0,33.7,26.9,18.2,0000.0,0000.04,0000.11,0000.01
2022-05-22 16:12:00,,0831.4,5.00,0.00,25.0,24.2,00.0,33.8,27.0,19.3,0000.0,0000.04,0000.12,0000.01
2022-05-22 16:13:00,,0831.4,5.00,0.00,25.0,24.2,00.0,33.8,27.0,19.0,0000.0,0000.04,0000.12,0000.01
2022-05-22 16:14:00,,0831.2,4.99,0.00,25.0,24.2,00.0,33.8,26.9,18.4,0000.0,0000.04,0000.12,0000.01
2022-05-22 16:15:00,,0831.1,5.01,0.00,25.0,24.2,00.0,33.8,26.9,18.2,0000.0,0000.04,0000.12,0000.01
2022-05-22 16:16:00,,0831.1,5.02,0.00,25.0,24.2,00.0,33.8,26.9,17.7,0000.0,0000.04,0000.13,0000.01
2022-05-22 16:17:00,,0831.1,4.99,0.00,25.0,24.2,00.0,33.8,26.9,17.5,0000.0,0000.04,0000.44,0000.01
2022-05-22 16:18:00,,0831.1,5.01,0.00,25.0,24.2,00.0,33.8,26.9,18.5,0000.0,0000.03,0000.43,0000.00
2022-05-22 16:19:00,,0831.2,4.99,0.00,25.0,24.2,00.0,33.8,26.9,18.0,0000.0,0000.03,0000.41,0000.00
2022-05-22 16:20:00,,0831.1,5.01,0.00,25.0,24.2,00.0,33.8,26.9,18.2,0000.0,0000.03,0000.41,0000.00
2022-05-22 16:21:00,,0831.1,5.00,0.00,25.0,24.2,00.0,33.8,26.9,18.3,0000.0,0000.03,0000.41,0000.00
2022-05-22 16:22:00,,0831.0,4.99,0.00,25.0,24.2,00.0,33.8,26.9,18.7,0000.0,0000.00,0000.33,0000.00
2022-05-22 16:23:00,,0830.9,5.00,0.00,25.0,24.1,00.0,33.9,26.9,18.2,0000.0,0000.00,0000.32,0000.00
2022-05-22 16:24:00,,0831.0,5.00,0.00,25.0,24.1,00.0,33.9,26.9,18.7,0000.0,0000.01,0000.34,0000.00
2022-05-22 16:25:00,,0831.0,5.01,0.00,25.0,24.1,00.0,33.9,26.8,18.3,0000.0,0000.01,0000.35,0000.00
2022-05-22 16:26:00,,0831.0,4.99,0.00,24.9,24.1,00.0,33.9,26.8,17.7,0000.0,0000.01,0000.35,0000.00
2022-05-22 16:27:00,,0831.0,5.00,0.00,24.9,24.0,00.0,33.9,26.8,17.9,0000.0,0000.01,0000.33,0000.00
2022-05-22 16:28:00,,0831.0,5.01,0.00,24.9,24.0,00.0,33.9,26.8,17.7,0000.0,0000.01,0000.03,0000.00
2022-05-22 16:29:00,,0831.0,4.98,0.00,24.9,24.0,00.0,33.9,26.8,18.1,0000.0,0000.01,0000.03,0000.00
2022-05-22 16:30:00,,0830.9,5.01,0.00,24.9,24.0,00.0,33.9,26.8,17.9,0000.0,0000.01,0000.03,0000.00
2022-05-22 16:31:00,,0830.9,4.99,0.00,24.9,24.0,00.0,33.9,26.8,16.9,0000.0,0000.01,0000.03,0000.00
2022-05-22 16:32:00,,0831.0,5.01,0.00,24.9,24.0,00.0,33.9,26.8,18.3,0000.0,0000.01,0000.03,0000.00
2022-05-22 16:33:00,,0830.9,5.00,0.00,24.9,24.0,00.0,33.9,26.8,18.8,0000.0,0000.01,0000.03,0000.00
2022-05-22 16:34:00,,0830.9,5.00,0.00,24.9,24.0,00.0,33.9,26.8,18.0,0000.0,0000.01,0000.03,0000.00
2022-05-22 16:35:00,,0830.8,5.01,0.00,24.9,24.0,00.0,33.9,26.8,18.1,0000.0,0000.00,0000.01,0000.00
2022-05-22 16:36:00,,0830.8,4.99,0.00,24.9,24.0,00.0,33.9,26.8,19.1,0000.0,0000.00,0000.00,0000.00
2022-05-22 16:37:00,,0830.7,5.00,0.00,24.9,24.0,00.0,33.9,26.8,18.5,0000.0,0000.00,0000.00,0000.00
2022-05-22 16:38:00,,0830.7,5.01,0.00,24.9,24.0,00.0,33.9,26.8,18.4,0000.0,0000.00,0000.00,0000.00
2022-05-22 16:39:00,,0830.7,4.99,0.00,25.0,24.1,00.0,33.9,26.8,18.6,0000.0,0000.00,0000.00,0000.00
2022-05-22 16:40:00,,0830.7,5.01,0.00,25.0,24.1,00.0,33.9,26.9,17.5,0000.0,0000.00,0000.01,0000.00
2022-05-22 16:41:00,,0830.8,4.99,0.00,25.0,24.1,00.0,33.9,26.9,16.7,0000.0,0000.01,0000.03,0000.00
2022-05-22 16:42:00,,0830.7,5.00,0.00,25.0,24.2,00.0,33.9,27.0,17.0,0000.0,0000.01,0000.03,0000.00
2022-05-22 16:43:00,,0830.7,5.00,0.00,25.0,24.2,00.0,33.9,27.0,16.2,0000.0,0000.01,0000.03,0000.00
2022-05-22 16:44:00,,0830.7,5.00,0.00,25.0,24.3,00.0,33.9,27.0,16.3,0000.0,0000.01,0000.03,0000.00
2022-05-22 16:45:00,,0830.7,4.99,0.00,25.1,24.3,00.0,33.9,27.0,16.2,0000.0,0000.01,0000.03,0000.00
2022-05-22 16:46:00,,0830.6,5.01,0.00,25.1,24.3,00.0,33.9,27.1,16.1,0000.0,0000.02,0000.05,0000.00
2022-05-22 16:47:00,,0830.6,5.00,0.00,25.1,24.4,00.0,33.9,27.1,16.2,0000.0,0000.02,0000.08,0000.00
2022-05-22 16:48:00,,0830.6,5.00,0.00,25.1,24.4,00.0,33.9,27.1,16.0,0000.0,0000.03,0000.08,0000.00
2022-05-22 16:49:00,,0830.6,5.00,0.00,25.2,24.4,00.0,34.0,27.1,16.3,0000.0,0000.03,0000.08,0000.01
2022-05-22 16:50:00,,0830.6,5.01,0.00,25.2,24.5,00.0,34.0,27.2,16.8,0000.0,0000.03,0000.08,0000.01
2022-05-22 16:51:00,,0830.6,4.99,0.00,25.2,24.5,00.0,34.0,27.2,16.9,0000.0,0000.02,0000.07,0000.01
2022-05-22 16:52:00,,0830.6,5.01,0.00,25.2,24.5,00.0,34.0,27.2,17.7,0000.0,0000.02,0000.05,0000.00
2022-05-22 16:53:00,,0830.6,5.00,0.00,25.2,24.5,00.0,34.0,27.2,17.7,0000.0,0000.02,0000.05,0000.00
2022-05-22 16:54:00,,0830.6,5.00,0.00,25.3,24.6,00.0,34.0,27.3,17.7,0000.0,0000.02,0000.05,0000.00
2022-05-22 16:55:00,,0830.5,5.00,0.00,25.3,24.6,00.0,34.1,27.3,17.5,0000.0,0000.02,0000.63,0000.00
2022-05-22 16:56:00,,0830.5,5.01,0.00,25.3,24.6,00.0,34.1,27.3,17.0,0000.0,0000.02,0001.18,0000.00
2022-05-22 16:57:00,,0830.4,4.99,0.00,25.3,24.6,00.0,34.1,27.3,16.3,0000.0,0000.01,0001.17,0000.00
2022-05-22 16:58:00,,0830.4,5.00,0.00,25.3,24.6,00.0,34.1,27.3,16.8,0000.0,0000.00,0001.14,0000.00
2022-05-22 16:59:00,,0830.4,5.00,0.00,25.4,24.7,00.0,34.1,27.4,18.0,0000.0,0000.00,0001.14,0000.00
